Flag for France Weather for the Past 2 Weeks in Boulogne-Billancourt, France

Now
39 °F

Partly cloudy.


Feels Like: 37 °F
Forecast: 36 / 46 °F
Wind: 3 mph from East

Location: Paris-Orly

Current Time: Feb 12, 2016 at 8:23:16 PM

Latest Report: Feb 12, 2016 at 8:00 PM


Visibility: N/A

Pressure: 29.33 "Hg

Humidity: 93%

Dew point: 37 °F

Location of Boulogne-BillancourtLocation

Historic Weather in Boulogne-Billancourt — Graph

°F

Boulogne-Billancourt Temperature Yesterday

Maximum temperature yesterday: 46 °F (at 1:00 PM)
Minimum temperature yesterday: 36 °F (at 8:30 AM)
Average temperature yesterday: 41 °F

High & Low Weather Summary for the Past Weeks

 TemperatureHumidityPressure
High57 °F (Jan 31, 4:00 PM)100% (Jan 28, 11:00 PM)30.48 "Hg (Jan 28, 11:00 PM)
Low36 °F (Jan 28, 10:00 PM)51% (Feb 6, 4:17 PM)29.06 "Hg (Feb 9, 12:30 PM)
Average46 °F85%29.92 "Hg
* Reported Jan 28 7:00 PM — Feb 12 7:00 PM, Boulogne-Billancourt, Weather by CustomWeather, © 2016

Note: Actual official high and low records may vary slightly from our data, if they occured in-between our weather recording intervals... More about our weather records

Advertising

Boulogne-Billancourt Weather History for the Previous 24 Hours

 ConditionsComfort  
Time TempWeatherWind HumidityBarometerVisibility
7:00 PM
Fri, Feb 12
39 °FPassing clouds.6 mph93%29.30 "HgN/A
6:30 PM39 °FPassing clouds.5 mph93%29.30 "HgN/A
6:00 PM39 °FPartly sunny.3 mph93%29.30 "HgN/A
5:30 PM39 °FPartly sunny.7 mph93%29.27 "HgN/A
5:00 PM39 °FPartly sunny.3 mph93%29.27 "HgN/A
4:30 PM39 °FPartly sunny.6 mph93%29.27 "HgN/A
4:00 PM39 °FLight rain. Partly sunny.7 mph93%29.24 "HgN/A
3:30 PM39 °FLight rain. Partly sunny.8 mph93%29.24 "HgN/A
3:00 PM37 °FLight rain. Partly sunny.8 mph100%29.24 "HgN/A
2:30 PM37 °FLight rain. Partly sunny.9 mph93%29.24 "HgN/A
2:00 PM37 °FRain. Partly sunny.12 mph93%29.24 "HgN/A
1:30 PM39 °FLight rain. Partly sunny.12 mph93%29.24 "HgN/A
1:00 PM39 °FLight rain. Partly sunny.12 mph93%29.27 "HgN/A
12:30 PM39 °FLight rain. Partly sunny.10 mph93%29.27 "HgN/A
12:00 PM39 °FLight rain. Partly sunny.12 mph93%29.30 "HgN/A
11:30 AM39 °FLight rain. Partly sunny.12 mph93%29.30 "HgN/A
11:00 AM39 °FLight rain. Partly sunny.12 mph93%29.33 "HgN/A
10:30 AM39 °FPartly sunny.12 mph93%29.33 "HgN/A
10:00 AM37 °FPartly sunny.12 mph93%29.36 "HgN/A
9:30 AM37 °FLight rain. Partly sunny.10 mph93%29.39 "HgN/A
9:00 AM37 °FLight rain. Partly sunny.10 mph93%29.42 "Hg6 mi
8:30 AM36 °FLight rain. Partly sunny.9 mph100%29.45 "Hg5 mi
8:00 AM36 °FPassing clouds.8 mph93%29.45 "HgN/A
7:30 AM36 °FPassing clouds.8 mph93%29.45 "HgN/A
7:00 AM36 °FPassing clouds.9 mph93%29.47 "HgN/A
6:30 AM36 °FPassing clouds.9 mph93%29.50 "HgN/A
6:00 AM36 °FPassing clouds.9 mph93%29.50 "HgN/A
5:30 AM36 °FPassing clouds.8 mph93%29.53 "HgN/A
5:00 AM36 °FPassing clouds.9 mph93%29.56 "HgN/A
4:30 AM36 °FPassing clouds.8 mph93%29.59 "HgN/A
4:00 AM36 °FPassing clouds.8 mph100%29.59 "HgN/A
3:30 AM36 °FPassing clouds.6 mph100%29.62 "HgN/A
3:00 AM36 °FPassing clouds.8 mph100%29.62 "HgN/A
2:30 AM37 °FLow clouds.8 mph93%29.62 "HgN/A
1:30 AM37 °FPassing clouds.9 mph93%29.65 "HgN/A
1:00 AM37 °FPassing clouds.9 mph93%29.65 "HgN/A
12:30 AM39 °FPassing clouds.8 mph87%29.65 "HgN/A
12:00 AM39 °FPartly cloudy.8 mph87%29.68 "HgN/A
11:00 PM
Thu, Feb 11
41 °FPassing clouds.5 mph87%29.68 "HgN/A
10:30 PM41 °FPassing clouds.9 mph87%29.71 "HgN/A
10:00 PM41 °FPartly cloudy.10 mph87%29.71 "HgN/A
9:30 PM41 °FPassing clouds.8 mph87%29.71 "HgN/A
9:00 PM41 °FPassing clouds.7 mph87%29.71 "HgN/A
8:30 PM41 °FPassing clouds.7 mph87%29.71 "HgN/A
8:00 PM41 °FPassing clouds.7 mph87%29.71 "HgN/A
Weather by CustomWeather, © 2016

See weather overviewHow to use our weather pages